FENGYUN 1C DEB, 30090

Orbit data source: Space-Track

FENGYUN 1C DEB, 30090 is space debris in SSO originally from a launch on Mon, 10 May 1999 UTC launched from the Taiyaun Space Center, China (TSC). Fengyun 1C debris stems from the Chinese weather satellite Fengyun-1C, which was intentionally destroyed by a Chinese anti-satellite missile in 2007. This event dramatically increased the amount of space debris, with thousands of trackable fragments posing hazards to satellites and human spaceflight. The Fengyun 1C debris cloud has become a focal point in discussions about space sustainability and the need for international regulations to prevent the creation of new debris.

Loading next visibility...
Identifier
30090, 1999-025QT
Orbit
SSO
Country
Flag of CNCN / PRC
Related business
Manufacturer
Unknown
Mission
Spacecraft
Bus & Motor
Unknown
Mass
Unknown
Launch date (UTC)
1999-05-10 (27 years ago)
Launch vehicle
Unknown
Launch site
Taiyaun Space Center, China (TSC)
Object type
Payload
Rocket body
Debris
Shape & HBR
Unknown shape, 0.1 m
Radar Cross Section
Medium (>0.1 m² and <1 m²)

Expand to show TLE details & history
Last TLE update: 1 day ago

TLE from 1 day ago
0 FENGYUN 1C DEB
1 30090U 99025QT  26163.47524957  .00000549  00000-0  23152-3 0  9992
2 30090  99.4152 356.0198 0056511 312.5032 106.9466 14.29411157  8656
Epoch: 2026-06-12T11:24Z
TLE epoch observation values (Epoch: 2026-06-12T11:24:21.562Z)
Latitude
58.85207°
Longitude
-91.71186°
Altitude
815.629 km
Speed
7.445 km/s
True Right ascension
22h 40m 43s
True Declination
58° 42' 03"
Sunlit
Object was in daylight at epoch
Visualization orbit readout
Latitude
Unknown
Longitude
Unknown
Altitude
Unknown
Speed
Unknown
Apparent Right ascension
Unknown
Apparent Declination
Unknown
Sunlit
N/A
Visualization observer readout
Local Sidereal Time
00:03:50
Azimuth
Unknown
Elevation
Unknown
Doppler factor
Unknown
Orbital elements
Apogee altitude
831.394 km
Perigee altitude
750.368 km
Semi-major axis
7,169.018 km
Eccentricity
0.00565
Inclination
99.4152°
RAAN
356.0198°
Arg. of periapsis
312.5032°
True anomaly
107.56476°
Mean anomaly
106.9466°
Eccentric anomaly
107.25581°
Mean motion
3.57564 °/min
Orbital period
100.68 mins
BSTAR
0.00023152
Loading maneuver chart data...
Computing Atmospheric mass density...
Loading historical data...
Loading historical data...
Loading historical data...
Loading historical data...
Loading historical data...
Loading historical data...
Loading historical data...

Documentation

Showing up to 5 results
|